Regional Weather Roundup
Issued by NWS Sioux Falls, SD

Home | Current Version | Previous Version | Text Only | Print | Product List | Glossary On
Versions: 1 2 3 4 5 6 7 8 9 10 11 12 13 14 15 16 17 18 19 20 21 22 23 24 25 26 27 28 29 30 31 32 33 34 35 36 37 38 39 40 41 42 43 44 45 46 47 48 49 50
000
ASUS43 KFSD 181502
RWRFSD

WEATHER ROUNDUP FOR SE SOUTH DAKOTA/SW MINNESOTA/NW IOWA
NATIONAL WEATHER SERVICE SIOUX FALLS SD
1000 AM CDT WED OCT 18 2017

NOTE: "FAIR" INDICATES FEW OR NO CLOUDS BELOW 12,000 FEET WITH NO
SIGNIFICANT WEATHER AND OR OBSTRUCTIONS TO VISIBILITY.


SDZ038>040-050-052>070-181600-
SOUTHEAST SOUTH DAKOTA

CITY           SKY/WX    TMP DP  RH WIND       PRES   REMARKS
BROOKINGS      CLOUDY    51  45  79 W5        29.86R
CHAMBERLAIN    NOT AVBL
HURON          MOSUNNY   57  38  48 N16       29.88R
MADISON        FAIR      54  45  71 NW13      29.85R
MITCHELL       LGT RAIN  58  37  45 N20       29.87R
SIOUX FALLS    PTSUNNY   57  47  69 SW7       29.83R
WINNER         FAIR      60  35  39 N16G23    29.95R
YANKTON        MOSUNNY   57  45  64 SW5       29.84R
$$

MNZ071-072-080-081-089-090-097-098-181600-
SOUTHWEST MINNESOTA

CITY           SKY/WX    TMP DP  RH WIND       PRES   REMARKS
FAIRMONT       SUNNY     55  46  71 S17       29.84S
JACKSON        SUNNY     55  45  67 SW13      29.83S
MARSHALL       MOSUNNY   58  45  62 W17G25    29.82R
MONTEVIDEO     CLOUDY    57  46  67 NW6       29.80R
PIPESTONE      CLOUDY    52  45  76 W8        29.84R
REDWOOD FALLS  MOSUNNY   60  46  59 W9G23     29.80R
TRACY          CLOUDY    60  47  62 SW16G23   29.81R
WORTHINGTON    CLOUDY    58  45  62 SW16      29.82R
$$

IAZ001>003-012>014-020>022-031-032-NEZ013-014-SDZ071-181600-
NORTHWEST IOWA

CITY           SKY/WX    TMP DP  RH WIND       PRES   REMARKS
CHEROKEE       SUNNY     56  49  77 S14       29.86F
DENISON        SUNNY     57  46  67 SW10G20   29.93R
ESTHERVILLE    SUNNY     51  48  89 S12       29.84S
LE MARS        CLOUDY    57  46  67 S12G20    29.84S HAZE
ORANGE CITY    CLOUDY    57  52  82 S14       29.84R
SHELDON        SUNNY     57  46  67 S9        29.82R
SIOUX CITY     CLOUDY    58  48  69 S7        29.87R
SPENCER        SUNNY     59  48  67 S8        29.85R
STORM LAKE     SUNNY     59  46  63 S16       29.87S
$$

ABBREVIATIONS USED IN REMARKS
   TC - TEMPERATURE IN CELSIUS
  WCI - WIND CHILL INDEX
   HX - HEAT INDEX
  VSB - VISIBILITY





USA.gov is the U.S. government's official web portal to all federal, state and local government web resources and services.